Flag for U.S.A. Weather past 2 weeks in Jacksonville, Florida, U.S.A.

Now
78 °F

Clear.


Feels Like: 81 °F
Forecast: 75 / 91 °F
Wind: No wind

Location: Jacksonville Naval Air Station

Current Time: Jul 5, 2015 at 3:58:57 AM

Latest Report: Jul 5, 2015 at 2:53 AM


Visibility: 1 mi

Pressure: 30.11 "Hg

Humidity: 84%

Dew point: 73 °F

Location of JacksonvilleLocation

Historic Weather in Jacksonville — Graph

°F

Jacksonville temperature yesterday

Maximum temperature yesterday: 91 °F (at 11:53 AM)
Minimum temperature yesterday: 75 °F (at 2:53 PM)
Average temperature yesterday: 81 °F

Past Weeks' High & Low Weather Summary

 TemperatureHumidityPressure
High102 °F (Jun 20, 3:53 PM)85% (Jun 23, 7:53 AM)30.19 "Hg (Jun 23, 7:53 AM)
Low75 °F (Jul 1, 6:53 AM)27% (Jun 20, 3:53 PM)29.93 "Hg (Jun 28, 3:53 PM)
Average85 °F65%30.06 "Hg
* Reported Jun 20 2:53 AM — Jul 5 2:53 AM, Jacksonville, Weather by CustomWeather, © 2015

Note: Actual official high and low records may vary slightly from our data, if they occured in-between our weather recording intervals... More about our weather records

Advertising

Jacksonville weather history for previous 24 hours

 ConditionsComfort  
Time TempWeatherWind HumidityBarometerVisibility
2:53 AM
Sun, Jul 5
78 °FClear.No wind84%30.11 "Hg1 mi
1:53 AM78 °FClear.3 mph84%30.12 "Hg1 mi
12:53 AM79 °FClear.No wind82%30.13 "Hg1 mi
11:53 PM
Sat, Jul 4
79 °FClear.3 mph82%30.13 "Hg2 mi
10:53 PM79 °FPassing clouds.No wind82%30.13 "Hg7 mi
9:53 PM78 °FPassing clouds.3 mph84%30.11 "Hg10 mi
8:53 PM78 °FBroken clouds.No wind82%30.12 "Hg10 mi
7:53 PM78 °FBroken clouds.No wind82%30.12 "Hg10 mi
6:53 PM79 °FBroken clouds.8 mph82%30.10 "Hg10 mi
5:53 PM77 °FPartly sunny.No wind77%30.09 "Hg10 mi
4:53 PM77 °FLight rain. More clouds than sun.No wind85%30.08 "Hg10 mi
3:53 PM75 °FLight rain. More clouds than sun.5 mph85%30.10 "Hg9 mi
2:53 PM75 °FThunderstorms. Mostly cloudy.14 mph85%30.11 "Hg5 mi
1:53 PM83 °FThunderstorms. Partly sunny.8 mph70%30.09 "Hg7 mi
12:53 PM84 °FThunderstorms. Broken clouds.13 mph59%30.11 "Hg5 mi
11:53 AM91 °FBroken clouds.9 mph56%30.11 "Hg10 mi
10:53 AM89 °FScattered clouds.5 mph57%30.11 "Hg10 mi
9:53 AM86 °FPartly sunny.8 mph61%30.11 "Hg10 mi
7:53 AM80 °FPartly sunny.6 mph67%30.10 "Hg10 mi
6:53 AM80 °FPassing clouds.5 mph67%30.09 "Hg10 mi
6:00 AM80 °FPassing clouds.6 mph69%30.09 "Hg10 mi
4:53 AM80 °FClear.6 mph67%30.07 "Hg10 mi
3:53 AM81 °FClear.6 mph65%30.06 "Hg10 mi
Weather by CustomWeather, © 2015

See weather overviewHow to use our weather pages